Time,TemperatureF,DewpointF,PressureIn,WindDirection,WindDirectionDegrees,WindSpeedMPH,WindSpeedGustMPH,Humidity,HourlyPrecipIn,Conditions,Clouds,dailyrainin,SoftwareType,DateUTC
2013-04-24 00:02:00,34.0,28.0,30.25,WNW,301,3.0,6.0,79,0.00,,,0.45,,2013-04-24 05:02:00,
2013-04-24 00:12:00,34.0,28.0,30.25,WNW,301,3.0,6.0,79,0.00,,,0.45,,2013-04-24 05:12:00,
2013-04-24 00:22:00,33.0,27.0,30.24,WNW,301,3.0,5.0,79,0.00,,,0.45,,2013-04-24 05:22:00,
2013-04-24 00:32:00,33.0,28.0,30.24,WNW,301,3.0,6.0,80,0.00,,,0.45,,2013-04-24 05:32:00,
2013-04-24 00:42:00,33.0,28.0,30.24,WNW,301,3.0,6.0,80,0.00,,,0.45,,2013-04-24 05:42:00,
2013-04-24 00:52:00,33.0,28.0,30.23,WNW,301,3.0,5.0,81,0.00,,,0.45,,2013-04-24 05:52:00,
2013-04-24 01:02:00,32.0,27.0,30.24,WNW,300,0.0,4.0,81,0.00,,,0.44,,2013-04-24 06:02:00,
2013-04-24 01:12:00,32.0,27.0,30.24,WNW,300,0.0,4.0,81,0.00,,,0.44,,2013-04-24 06:12:00,
2013-04-24 01:21:00,31.0,26.0,30.23,WNW,300,2.0,4.0,82,0.00,,,0.44,,2013-04-24 06:21:00,
2013-04-24 01:32:00,31.0,26.0,30.24,WNW,301,1.0,5.0,83,0.00,,,0.44,,2013-04-24 06:32:00,
2013-04-24 01:42:00,31.0,26.0,30.24,WNW,301,1.0,5.0,83,0.00,,,0.44,,2013-04-24 06:42:00,
2013-04-24 01:51:00,30.0,26.0,30.24,WNW,301,1.0,3.0,84,0.00,,,0.44,,2013-04-24 06:51:00,
2013-04-24 02:02:00,30.0,26.0,30.24,WNW,301,1.0,2.0,85,0.00,,,0.41,,2013-04-24 07:02:00,
2013-04-24 02:11:00,30.0,26.0,30.24,WNW,301,1.0,2.0,85,0.00,,,0.41,,2013-04-24 07:11:00,
2013-04-24 02:22:00,29.0,25.0,30.24,WNW,301,1.0,3.0,85,0.00,,,0.41,,2013-04-24 07:22:00,
2013-04-24 02:32:00,29.0,25.0,30.24,WNW,300,0.0,5.0,85,0.00,,,0.41,,2013-04-24 07:32:00,
2013-04-24 02:42:00,29.0,25.0,30.24,WNW,300,0.0,5.0,85,0.00,,,0.41,,2013-04-24 07:42:00,
2013-04-24 02:52:00,29.0,25.0,30.24,WNW,301,1.0,2.0,84,0.00,,,0.41,,2013-04-24 07:52:00,
2013-04-24 03:02:00,28.0,24.0,30.24,WNW,301,0.0,0.0,85,0.00,,,0.33,,2013-04-24 08:02:00,
2013-04-24 03:12:00,28.0,24.0,30.24,WNW,301,0.0,0.0,85,0.00,,,0.33,,2013-04-24 08:12:00,
2013-04-24 03:21:00,28.0,24.0,30.24,WNW,301,0.0,1.0,86,0.00,,,0.33,,2013-04-24 08:21:00,
2013-04-24 03:33:00,27.0,23.0,30.24,WNW,301,0.0,2.0,86,0.00,,,0.33,,2013-04-24 08:33:00,
2013-04-24 03:42:00,27.0,23.0,30.24,WNW,301,0.0,2.0,86,0.00,,,0.33,,2013-04-24 08:42:00,
2013-04-24 03:52:00,27.0,23.0,30.24,WNW,302,0.0,0.0,86,0.00,,,0.33,,2013-04-24 08:52:00,
2013-04-24 04:02:00,27.0,24.0,30.23,WNW,301,0.0,2.0,87,0.00,,,0.30,,2013-04-24 09:02:00,
2013-04-24 04:11:00,27.0,24.0,30.23,WNW,301,0.0,2.0,87,0.00,,,0.30,,2013-04-24 09:11:00,
2013-04-24 04:21:00,27.0,24.0,30.23,WNW,301,0.0,1.0,87,0.00,,,0.30,,2013-04-24 09:21:00,
2013-04-24 04:33:00,27.0,24.0,30.23,WNW,301,0.0,3.0,87,0.00,,,0.30,,2013-04-24 09:33:00,
2013-04-24 04:42:00,27.0,24.0,30.23,WNW,301,0.0,3.0,87,0.00,,,0.30,,2013-04-24 09:42:00,
2013-04-24 04:53:00,27.0,24.0,30.23,WNW,301,0.0,0.0,87,0.00,,,0.30,,2013-04-24 09:53:00,
2013-04-24 05:02:00,26.0,22.0,30.23,WNW,301,0.0,0.0,86,0.00,,,0.30,,2013-04-24 10:02:00,
2013-04-24 05:12:00,26.0,22.0,30.23,WNW,301,0.0,0.0,86,0.00,,,0.30,,2013-04-24 10:12:00,
2013-04-24 05:22:00,25.0,22.0,30.22,WNW,301,0.0,0.0,87,0.00,,,0.30,,2013-04-24 10:22:00,
2013-04-24 05:32:00,24.0,21.0,30.23,WNW,301,0.0,0.0,87,0.00,,,0.30,,2013-04-24 10:32:00,
2013-04-24 05:42:00,24.0,21.0,30.23,WNW,301,0.0,0.0,87,0.00,,,0.30,,2013-04-24 10:42:00,
2013-04-24 05:52:00,24.0,21.0,30.23,WNW,301,0.0,2.0,88,0.00,,,0.30,,2013-04-24 10:52:00,
2013-04-24 06:02:00,23.0,20.0,30.23,WNW,301,0.0,0.0,88,0.00,,,0.30,,2013-04-24 11:02:00,
2013-04-24 06:11:00,23.0,20.0,30.23,WNW,301,0.0,0.0,88,0.00,,,0.30,,2013-04-24 11:11:00,
2013-04-24 06:21:00,24.0,21.0,30.23,WNW,302,2.0,3.0,89,0.00,,,0.30,,2013-04-24 11:21:00,
2013-04-24 06:32:00,23.0,20.0,30.24,WNW,302,0.0,2.0,89,0.00,,,0.30,,2013-04-24 11:32:00,
2013-04-24 06:42:00,23.0,20.0,30.24,WNW,302,0.0,2.0,89,0.00,,,0.30,,2013-04-24 11:42:00,
2013-04-24 06:52:00,23.0,20.0,30.24,WNW,302,0.0,0.0,89,0.00,,,0.30,,2013-04-24 11:52:00,
2013-04-24 07:02:00,23.0,20.0,30.24,WNW,302,0.0,0.0,89,0.00,,,0.30,,2013-04-24 12:02:00,
2013-04-24 07:11:00,23.0,20.0,30.24,WNW,302,0.0,0.0,89,0.00,,,0.30,,2013-04-24 12:11:00,
2013-04-24 07:22:00,23.0,20.0,30.24,WNW,302,1.0,2.0,89,0.00,,,0.30,,2013-04-24 12:22:00,
2013-04-24 07:32:00,24.0,21.0,30.24,WNW,302,1.0,2.0,89,0.00,,,0.30,,2013-04-24 12:32:00,
2013-04-24 07:42:00,24.0,21.0,30.24,WNW,302,1.0,2.0,89,0.00,,,0.30,,2013-04-24 12:42:00,
2013-04-24 07:51:00,25.0,22.0,30.24,WNW,302,0.0,1.0,90,0.00,,,0.30,,2013-04-24 12:51:00,
2013-04-24 08:01:00,26.0,23.0,30.25,WNW,302,0.0,2.0,89,0.00,,,0.30,,2013-04-24 13:01:00,
2013-04-24 08:12:00,26.0,23.0,30.25,WNW,302,0.0,2.0,89,0.00,,,0.30,,2013-04-24 13:12:00,
2013-04-24 08:22:00,27.0,24.0,30.24,WNW,302,1.0,1.0,89,0.00,,,0.30,,2013-04-24 13:22:00,
2013-04-24 08:31:00,28.0,25.0,30.24,WNW,302,0.0,2.0,88,0.00,,,0.30,,2013-04-24 13:31:00,
2013-04-24 08:41:00,28.0,25.0,30.24,WNW,302,0.0,2.0,88,0.00,,,0.30,,2013-04-24 13:41:00,
2013-04-24 08:52:00,30.0,26.0,30.24,WNW,302,0.0,2.0,86,0.00,,,0.30,,2013-04-24 13:52:00,
2013-04-24 09:01:00,31.0,26.0,30.24,WNW,302,2.0,3.0,83,0.01,,,0.31,,2013-04-24 14:01:00,
2013-04-24 09:11:00,31.0,26.0,30.24,WNW,302,2.0,3.0,83,0.01,,,0.31,,2013-04-24 14:11:00,
2013-04-24 09:21:00,32.0,27.0,30.24,WNW,302,1.0,3.0,80,0.01,,,0.31,,2013-04-24 14:21:00,
2013-04-24 09:32:00,34.0,28.0,30.24,WNW,302,1.0,3.0,79,0.01,,,0.31,,2013-04-24 14:32:00,
2013-04-24 09:41:00,34.0,28.0,30.24,WNW,302,1.0,3.0,79,0.01,,,0.31,,2013-04-24 14:41:00,
2013-04-24 09:51:00,35.0,29.0,30.24,WNW,302,1.0,3.0,79,0.01,,,0.31,,2013-04-24 14:51:00,
2013-04-24 10:01:00,36.0,29.0,30.24,WNW,302,3.0,4.0,76,0.00,,,0.31,,2013-04-24 15:01:00,
2013-04-24 10:11:00,36.0,29.0,30.24,WNW,302,3.0,4.0,76,0.00,,,0.31,,2013-04-24 15:11:00,
2013-04-24 10:21:00,38.0,31.0,30.24,WNW,300,3.0,4.0,76,0.00,,,0.31,,2013-04-24 15:21:00,
2013-04-24 10:33:00,40.0,32.0,30.24,SW,223,3.0,5.0,72,0.00,,,0.31,,2013-04-24 15:33:00,
2013-04-24 10:43:00,40.0,32.0,30.24,SW,223,3.0,5.0,72,0.00,,,0.31,,2013-04-24 15:43:00,
2013-04-24 10:53:00,42.0,32.0,30.25,SW,229,2.0,5.0,68,0.00,,,0.31,,2013-04-24 15:53:00,
2013-04-24 11:03:00,43.0,34.0,30.25,South,182,1.0,7.0,69,0.00,,,0.31,,2013-04-24 16:03:00,
2013-04-24 11:12:00,43.0,34.0,30.25,South,182,1.0,7.0,69,0.00,,,0.31,,2013-04-24 16:12:00,
2013-04-24 11:23:00,43.0,32.0,30.24,WSW,248,3.0,7.0,66,0.00,,,0.31,,2013-04-24 16:23:00,
2013-04-24 11:32:00,45.0,34.0,30.24,South,174,2.0,6.0,65,0.00,,,0.31,,2013-04-24 16:32:00,
2013-04-24 11:42:00,45.0,34.0,30.24,South,174,2.0,6.0,65,0.00,,,0.31,,2013-04-24 16:42:00,
2013-04-24 11:52:00,46.0,33.0,30.25,WNW,300,3.0,9.0,61,0.00,,,0.31,,2013-04-24 16:52:00,
2013-04-24 12:02:00,47.0,36.0,30.25,South,174,2.0,7.0,66,0.00,,,0.31,,2013-04-24 17:02:00,
2013-04-24 12:12:00,47.0,36.0,30.25,South,174,2.0,7.0,66,0.00,,,0.31,,2013-04-24 17:12:00,
2013-04-24 12:22:00,48.0,38.0,30.25,SW,223,5.0,7.0,68,0.00,,,0.31,,2013-04-24 17:22:00,
2013-04-24 12:32:00,48.0,36.0,30.25,SW,214,5.0,10.0,62,0.00,,,0.31,,2013-04-24 17:32:00,
2013-04-24 12:42:00,48.0,36.0,30.25,SW,214,5.0,10.0,62,0.00,,,0.31,,2013-04-24 17:42:00,
2013-04-24 12:51:00,49.0,36.0,30.25,WSW,255,6.0,11.0,61,0.00,,,0.31,,2013-04-24 17:51:00,
2013-04-24 13:02:00,51.0,34.0,30.25,WNW,292,4.0,12.0,53,0.00,,,0.30,,2013-04-24 18:02:00,
2013-04-24 13:12:00,51.0,34.0,30.25,WNW,292,4.0,12.0,53,0.00,,,0.30,,2013-04-24 18:12:00,
2013-04-24 13:22:00,51.0,36.0,30.24,West,272,5.0,11.0,56,0.00,,,0.30,,2013-04-24 18:22:00,
2013-04-24 13:33:00,52.0,35.0,30.23,WSW,237,3.0,10.0,52,0.00,,,0.30,,2013-04-24 18:33:00,
2013-04-24 13:42:00,52.0,35.0,30.23,WSW,237,3.0,10.0,52,0.00,,,0.30,,2013-04-24 18:42:00,
2013-04-24 13:52:00,52.0,34.0,30.22,West,259,6.0,10.0,50,0.00,,,0.30,,2013-04-24 18:52:00,
2013-04-24 14:02:00,53.0,35.0,30.22,West,261,4.0,12.0,51,0.00,,,0.23,,2013-04-24 19:02:00,
2013-04-24 14:11:00,53.0,35.0,30.22,West,261,4.0,12.0,51,0.00,,,0.23,,2013-04-24 19:11:00,
2013-04-24 14:21:00,54.0,36.0,30.22,West,271,3.0,10.0,50,0.00,,,0.23,,2013-04-24 19:21:00,
2013-04-24 14:32:00,54.0,34.0,30.21,SSW,207,1.0,13.0,47,0.00,,,0.23,,2013-04-24 19:32:00,
2013-04-24 14:42:00,54.0,34.0,30.21,SSW,207,1.0,13.0,47,0.00,,,0.23,,2013-04-24 19:42:00,
2013-04-24 14:52:00,55.0,35.0,30.21,WSW,237,6.0,13.0,46,0.00,,,0.23,,2013-04-24 19:52:00,
2013-04-24 15:02:00,56.0,36.0,30.21,SW,223,4.0,14.0,47,0.00,,,0.19,,2013-04-24 20:02:00,
2013-04-24 15:11:00,56.0,36.0,30.21,SW,223,4.0,14.0,47,0.00,,,0.19,,2013-04-24 20:11:00,
2013-04-24 15:22:00,56.0,33.0,30.20,SW,229,5.0,14.0,41,0.00,,,0.19,,2013-04-24 20:22:00,
2013-04-24 15:32:00,57.0,33.0,30.20,SW,226,6.0,16.0,40,0.00,,,0.19,,2013-04-24 20:32:00,
2013-04-24 15:42:00,57.0,33.0,30.20,SW,226,6.0,16.0,40,0.00,,,0.19,,2013-04-24 20:42:00,
2013-04-24 15:51:00,57.0,36.0,30.19,SW,230,2.0,10.0,45,0.00,,,0.19,,2013-04-24 20:51:00,
2013-04-24 16:02:00,58.0,34.0,30.18,SW,225,5.0,14.0,41,0.00,,,0.14,,2013-04-24 21:02:00,
2013-04-24 16:11:00,58.0,34.0,30.18,SW,225,5.0,14.0,41,0.00,,,0.14,,2013-04-24 21:11:00,
2013-04-24 16:21:00,58.0,36.0,30.17,SW,232,8.0,15.0,43,0.00,,,0.14,,2013-04-24 21:21:00,
2013-04-24 16:33:00,58.0,33.0,30.16,WSW,238,5.0,11.0,39,0.00,,,0.14,,2013-04-24 21:33:00,
2013-04-24 16:42:00,58.0,33.0,30.16,WSW,238,5.0,11.0,39,0.00,,,0.14,,2013-04-24 21:42:00,
2013-04-24 16:52:00,59.0,34.0,30.16,West,262,0.0,11.0,39,0.00,,,0.14,,2013-04-24 21:52:00,
2013-04-24 17:03:00,58.0,35.0,30.15,South,171,5.0,10.0,42,0.00,,,0.11,,2013-04-24 22:03:00,
2013-04-24 17:12:00,58.0,35.0,30.15,South,171,5.0,10.0,42,0.00,,,0.11,,2013-04-24 22:12:00,
2013-04-24 17:22:00,57.0,32.0,30.15,WSW,257,5.0,12.0,39,0.00,,,0.11,,2013-04-24 22:22:00,
2013-04-24 17:33:00,58.0,33.0,30.14,WSW,238,8.0,12.0,39,0.00,,,0.11,,2013-04-24 22:33:00,
2013-04-24 17:42:00,58.0,33.0,30.14,WSW,238,8.0,12.0,39,0.00,,,0.11,,2013-04-24 22:42:00,
2013-04-24 17:52:00,59.0,35.0,30.14,West,264,4.0,13.0,40,0.00,,,0.11,,2013-04-24 22:52:00,
2013-04-24 18:02:00,59.0,35.0,30.14,West,281,0.0,9.0,40,0.00,,,0.09,,2013-04-24 23:02:00,
2013-04-24 18:12:00,59.0,35.0,30.14,West,281,0.0,9.0,40,0.00,,,0.09,,2013-04-24 23:12:00,
2013-04-24 18:21:00,58.0,34.0,30.14,SW,235,6.0,14.0,40,0.00,,,0.09,,2013-04-24 23:21:00,
2013-04-24 18:32:00,59.0,35.0,30.13,WSW,240,3.0,14.0,40,0.00,,,0.09,,2013-04-24 23:32:00,
2013-04-24 18:42:00,59.0,35.0,30.13,WSW,240,3.0,14.0,40,0.00,,,0.09,,2013-04-24 23:42:00,
2013-04-24 18:51:00,60.0,34.0,30.13,SW,226,3.0,6.0,38,0.00,,,0.09,,2013-04-24 23:51:00,
2013-04-24 19:01:00,59.0,34.0,30.12,WSW,245,3.0,9.0,39,0.00,,,0.07,,2013-04-25 00:01:00,
2013-04-24 19:12:00,59.0,34.0,30.12,WSW,245,3.0,9.0,39,0.00,,,0.07,,2013-04-25 00:12:00,
2013-04-24 19:22:00,59.0,36.0,30.12,WSW,242,0.0,10.0,42,0.00,,,0.07,,2013-04-25 00:22:00,
2013-04-24 19:32:00,58.0,34.0,30.12,SW,230,2.0,11.0,41,0.00,,,0.07,,2013-04-25 00:32:00,
2013-04-24 19:42:00,58.0,34.0,30.12,SW,230,2.0,11.0,41,0.00,,,0.07,,2013-04-25 00:42:00,
2013-04-24 19:52:00,58.0,36.0,30.11,SSW,211,0.0,7.0,43,0.00,,,0.07,,2013-04-25 00:52:00,
2013-04-24 20:01:00,56.0,35.0,30.11,SSW,207,0.0,1.0,45,0.00,,,0.07,,2013-04-25 01:01:00,
2013-04-24 20:11:00,56.0,35.0,30.11,SSW,207,0.0,1.0,45,0.00,,,0.07,,2013-04-25 01:11:00,
2013-04-24 20:23:00,54.0,36.0,30.11,SSW,211,0.0,0.0,50,0.00,,,0.07,,2013-04-25 01:23:00,
2013-04-24 20:32:00,51.0,36.0,30.11,South,187,0.0,1.0,57,0.00,,,0.07,,2013-04-25 01:32:00,
2013-04-24 20:42:00,51.0,36.0,30.11,South,187,0.0,1.0,57,0.00,,,0.07,,2013-04-25 01:42:00,
2013-04-24 20:52:00,50.0,36.0,30.13,South,178,0.0,5.0,59,0.00,,,0.07,,2013-04-25 01:52:00,
2013-04-24 21:02:00,49.0,36.0,30.13,SSW,203,0.0,5.0,60,0.00,,,0.06,,2013-04-25 02:02:00,
2013-04-24 21:11:00,49.0,36.0,30.13,SSW,203,0.0,5.0,60,0.00,,,0.06,,2013-04-25 02:11:00,
2013-04-24 21:22:00,48.0,35.0,30.13,SSW,197,0.0,6.0,61,0.00,,,0.06,,2013-04-25 02:22:00,
2013-04-24 21:32:00,47.0,35.0,30.14,South,190,0.0,1.0,63,0.00,,,0.06,,2013-04-25 02:32:00,
2013-04-24 21:42:00,47.0,35.0,30.14,South,190,0.0,1.0,63,0.00,,,0.06,,2013-04-25 02:42:00,
2013-04-24 21:51:00,47.0,35.0,30.14,South,190,0.0,1.0,63,0.00,,,0.06,,2013-04-25 02:51:00,
2013-04-24 22:02:00,47.0,35.0,30.16,South,190,0.0,1.0,64,0.00,,,0.01,,2013-04-25 03:02:00,
2013-04-24 22:11:00,47.0,35.0,30.16,South,190,0.0,1.0,64,0.00,,,0.01,,2013-04-25 03:11:00,
2013-04-24 22:22:00,45.0,35.0,30.16,South,188,0.0,0.0,67,0.00,,,0.01,,2013-04-25 03:22:00,
2013-04-24 22:33:00,44.0,34.0,30.18,WNW,300,0.0,0.0,69,0.00,,,0.01,,2013-04-25 03:33:00,
2013-04-24 22:42:00,44.0,34.0,30.18,WNW,300,0.0,0.0,69,0.00,,,0.01,,2013-04-25 03:42:00,
2013-04-24 22:52:00,45.0,35.0,30.20,West,279,4.0,11.0,68,0.00,,,0.01,,2013-04-25 03:52:00,
2013-04-24 23:03:00,46.0,35.0,30.20,SW,232,0.0,4.0,64,0.00,,,0.01,,2013-04-25 04:03:00,
2013-04-24 23:12:00,46.0,35.0,30.20,SW,232,0.0,4.0,64,0.00,,,0.01,,2013-04-25 04:12:00,
2013-04-24 23:23:00,44.0,34.0,30.21,SW,214,0.0,3.0,68,0.00,,,0.01,,2013-04-25 04:23:00,
2013-04-24 23:32:00,44.0,34.0,30.22,West,261,0.0,1.0,68,0.00,,,0.01,,2013-04-25 04:32:00,
2013-04-24 23:43:00,44.0,34.0,30.22,West,261,0.0,1.0,68,0.00,,,0.01,,2013-04-25 04:43:00,
2013-04-24 23:52:00,44.0,34.0,30.22,WSW,240,0.0,1.0,67,0.00,,,0.01,,2013-04-25 04:52:00,